| time (UTC) | temp F | wind direction | speed MPH | gust MPH | rain 1hr in | rain 24hr in | rain mn in | humidity % | barometer mb |
| 20260508183310 | 70 | 292 | 11.0 | 21.0 | 0.00 | 0.00 | 0.00 | 32 | 1011.1 |
| 20260508181557 | 70 | 289 | 13.0 | 17.0 | 0.00 | 0.00 | 0.00 | 33 | 1011.4 |
| 20260508180501 | 69 | 332 | 7.0 | 17.0 | 0.00 | 0.00 | 0.00 | 35 | 1011.5 |
| 20260508174619 | 68 | 321 | 8.0 | 15.0 | 0.00 | 0.00 | 0.00 | 37 | 1011.6 |
| 20260508173129 | 68 | 331 | 10.0 | 15.0 | 0.00 | 0.00 | 0.00 | 39 | 1011.9 |
| 20260508171629 | 67 | 275 | 9.0 | 15.0 | 0.00 | 0.00 | 0.00 | 41 | 1012.2 |
| 20260508170123 | 66 | 276 | 9.0 | 14.0 | 0.00 | 0.00 | 0.00 | 44 | 1012.2 |
| 20260508164620 | 64 | 273 | 10.0 | 15.0 | 0.00 | 0.00 | 0.00 | 45 | 1012.2 |
| 20260508163129 | 63 | 259 | 9.0 | 13.0 | 0.00 | 0.00 | 0.00 | 46 | 1012.4 |
| 20260508161600 | 62 | 292 | 7.0 | 13.0 | 0.00 | 0.00 | 0.00 | 50 | 1012.7 |
| 20260508160110 | 60 | 273 | 9.0 | 12.0 | 0.00 | 0.00 | 0.00 | 53 | 1012.6 |
| 20260508154553 | 59 | 288 | 9.0 | 12.0 | 0.00 | 0.00 | 0.00 | 55 | 1012.8 |
| 20260508153050 | 58 | 261 | 9.0 | 14.0 | 0.00 | 0.00 | 0.00 | 57 | 1013.0 |
| 20260508151556 | 57 | 268 | 11.0 | 14.0 | 0.00 | 0.00 | 0.00 | 59 | 1013.1 |
| 20260508150056 | 55 | 269 | 8.0 | 11.0 | 0.00 | 0.00 | 0.00 | 64 | 1013.4 |
| 20260508144554 | 54 | 259 | 8.0 | 10.0 | 0.00 | 0.00 | 0.00 | 67 | 1013.2 |
| 20260508143057 | 52 | 266 | 7.0 | 11.0 | 0.00 | 0.00 | 0.00 | 69 | 1013.5 |
| 20260508141552 | 50 | 271 | 7.0 | 10.0 | 0.00 | 0.00 | 0.00 | 72 | 1013.5 |
| 20260508140101 | 49 | 269 | 9.0 | 11.0 | 0.00 | 0.00 | 0.00 | 73 | 1013.6 |
| 20260508134545 | 47 | 263 | 5.0 | 7.0 | 0.00 | 0.00 | 0.00 | 73 | 1013.6 |
| 20260508133101 | 45 | 267 | 0.0 | 0.0 | 0.00 | 0.00 | 0.00 | 74 | 1013.6 |
| 20260508131550 | 43 | 243 | 0.0 | 5.0 | 0.00 | 0.00 | 0.00 | 76 | 1013.5 |
| 20260508130047 | 42 | 213 | 1.0 | 4.0 | 0.00 | 0.00 | 0.00 | 77 | 1013.4 |
| 20260508124610 | 40 | 225 | 0.0 | 4.0 | 0.00 | 0.00 | 0.00 | 76 | 1013.6 |
| 20260508123109 | 39 | 323 | 0.0 | 0.0 | 0.00 | 0.00 | 0.00 | 76 | 1013.4 |
| 20260508121607 | 39 | 323 | 0.0 | 6.0 | 0.00 | 0.00 | 0.00 | 76 | 1013.4 |
| 20260508120108 | 39 | 16 | 3.0 | 6.0 | 0.00 | 0.00 | 0.00 | 77 | 1013.2 |
| 20260508114604 | 40 | 40 | 5.0 | 9.0 | 0.00 | 0.00 | 0.00 | 74 | 1013.2 |
| 20260508113106 | 40 | 38 | 6.0 | 9.0 | 0.00 | 0.00 | 0.00 | 74 | 1013.2 |
| 20260508111557 | 41 | 49 | 5.0 | 7.0 | 0.00 | 0.00 | 0.00 | 71 | 1013.1 |
| 20260508110100 | 41 | 40 | 4.0 | 6.0 | 0.00 | 0.00 | 0.00 | 70 | 1013.4 |
| 20260508104819 | 41 | 15 | 0.0 | 0.0 | 0.00 | 0.00 | 0.00 | 69 | 1013.5 |
| 20260508103501 | 40 | 28 | 0.0 | 0.0 | 0.00 | 0.00 | 0.00 | 69 | 1013.4 |
| 20260508101915 | 38 | 28 | 0.0 | 3.0 | 0.00 | 0.00 | 0.00 | 70 | 1013.5 |
| 20260508100039 | 39 | 46 | 5.0 | 7.0 | 0.00 | 0.00 | 0.00 | 67 | 1013.3 |
| 20260508094955 | 40 | 41 | 4.0 | 6.0 | 0.00 | 0.00 | 0.00 | 67 | 1013.3 |
| 20260508093455 | 42 | 9 | 3.0 | 5.0 | 0.00 | 0.00 | 0.00 | 66 | 1013.2 |
| 20260508091953 | 43 | 17 | 1.0 | 6.0 | 0.00 | 0.00 | 0.00 | 65 | 1013.1 |
| 20260508090126 | 44 | 337 | 3.0 | 5.0 | 0.00 | 0.00 | 0.00 | 67 | 1013.4 |
| 20260508084553 | 46 | 30 | 5.0 | 6.0 | 0.00 | 0.00 | 0.00 | 63 | 1013.3 |
| 20260508083055 | 47 | 41 | 2.0 | 5.0 | 0.00 | 0.00 | 0.00 | 63 | 1013.4 |
| 20260508081544 | 47 | 47 | 5.0 | 9.0 | 0.00 | 0.00 | 0.00 | 62 | 1013.5 |
| 20260508080046 | 47 | 332 | 5.0 | 10.0 | 0.00 | 0.00 | 0.00 | 64 | 1013.3 |
| 20260508074545 | 47 | 310 | 4.0 | 9.0 | 0.00 | 0.00 | 0.00 | 64 | 1013.5 |
| 20260508073049 | 48 | 327 | 4.0 | 12.0 | 0.00 | 0.00 | 0.00 | 65 | 1013.3 |
| 20260508071539 | 46 | 319 | 0.0 | 0.0 | 0.00 | 0.00 | 0.00 | 65 | 1013.4 |
| 20260508070040 | 48 | 235 | 0.0 | 5.0 | 0.00 | 0.00 | 0.00 | 64 | 1013.3 |
| 20260508064552 | 49 | 292 | 0.0 | 0.0 | 0.00 | 0.00 | 0.00 | 63 | 1013.1 |
| 20260508063110 | 49 | 292 | 0.0 | 0.0 | 0.00 | 0.00 | 0.00 | 63 | 1013.2 |
| 20260508061600 | 49 | 292 | 0.0 | 3.0 | 0.00 | 0.00 | 0.00 | 63 | 1013.1 |
| 20260508060134 | 48 | 298 | 0.0 | 2.0 | 0.00 | 0.00 | 0.00 | 65 | 1013.2 |
| 20260508054528 | 49 | 298 | 0.0 | 2.0 | 0.00 | 0.00 | 0.00 | 65 | 1013.1 |
| 20260508053052 | 50 | 298 | 3.0 | 7.0 | 0.00 | 0.00 | 0.00 | 64 | 1013.2 |
| 20260508051605 | 51 | 309 | 2.0 | 4.0 | 0.00 | 0.00 | 0.00 | 59 | 1013.2 |
| 20260508050057 | 52 | 332 | 2.0 | 4.0 | 0.00 | 0.00 | 0.00 | 57 | 1013.0 |
| 20260508044544 | 54 | 313 | 5.0 | 8.0 | 0.00 | 0.00 | 0.00 | 54 | 1013.1 |
| 20260508043051 | 55 | 306 | 4.0 | 9.0 | 0.00 | 0.00 | 0.00 | 52 | 1013.3 |
| 20260508041609 | 56 | 302 | 5.0 | 9.0 | 0.00 | 0.00 | 0.00 | 51 | 1013.1 |
| 20260508040310 | 57 | 310 | 6.0 | 9.0 | 0.00 | 0.00 | 0.00 | 49 | 1013.1 |
| 20260508034546 | 58 | 323 | 9.0 | 13.0 | 0.00 | 0.00 | 0.00 | 48 | 1013.1 |
| 20260508033326 | 58 | 311 | 12.0 | 15.0 | 0.00 | 0.00 | 0.00 | 49 | 1013.1 |
| 20260508031527 | 53 | 338 | 5.0 | 8.0 | 0.00 | 0.00 | 0.00 | 54 | 1012.8 |
| 20260508030051 | 53 | 338 | 3.0 | 4.0 | 0.00 | 0.00 | 0.00 | 53 | 1012.6 |
| 20260508024603 | 54 | 319 | 2.0 | 4.0 | 0.00 | 0.00 | 0.00 | 51 | 1012.7 |
| 20260508023054 | 57 | 319 | 2.0 | 4.0 | 0.00 | 0.00 | 0.00 | 49 | 1012.2 |
| 20260508021621 | 59 | 319 | 3.0 | 4.0 | 0.00 | 0.00 | 0.00 | 46 | 1012.2 |
| 20260508020335 | 62 | 319 | 3.0 | 6.0 | 0.00 | 0.00 | 0.00 | 43 | 1011.9 |
| 20260508014547 | 64 | 306 | 6.0 | 12.0 | 0.00 | 0.00 | 0.00 | 41 | 1012.0 |
| 20260508013054 | 64 | 283 | 9.0 | 14.0 | 0.00 | 0.00 | 0.00 | 41 | 1011.6 |
| 20260508011559 | 64 | 311 | 14.0 | 18.0 | 0.00 | 0.00 | 0.00 | 43 | 1011.6 |
| 20260508010130 | 65 | 319 | 12.0 | 17.0 | 0.00 | 0.00 | 0.00 | 41 | 1011.6 |
| 20260508004559 | 64 | 291 | 8.0 | 12.0 | 0.00 | 0.00 | 0.00 | 36 | 1011.8 |
| 20260508003102 | 63 | 334 | 9.0 | 38.0 | 0.00 | 0.00 | 0.00 | 40 | 1011.9 |
| 20260508001604 | 67 | 36 | 13.0 | 16.0 | 0.00 | 0.00 | 0.00 | 29 | 1011.6 |
| 20260507234600 | 68 | 313 | 9.0 | 16.0 | 0.00 | 0.00 | 0.00 | 30 | 1011.6 |
| 20260507233052 | 68 | 301 | 14.0 | 21.0 | 0.00 | 0.00 | 0.00 | 30 | 1011.4 |
| 20260507231557 | 67 | 337 | 12.0 | 25.0 | 0.00 | 0.00 | 0.00 | 30 | 1011.6 |
| 20260507230114 | 68 | 9 | 10.0 | 14.0 | 0.00 | 0.00 | 0.00 | 30 | 1011.6 |
| 20260507224555 | 67 | 34 | 11.0 | 16.0 | 0.00 | 0.00 | 0.00 | 30 | 1011.6 |
| 20260507223132 | 69 | 34 | 12.0 | 16.0 | 0.00 | 0.00 | 0.00 | 28 | 1011.5 |
| 20260507221546 | 67 | 30 | 9.0 | 18.0 | 0.00 | 0.00 | 0.00 | 32 | 1011.8 |
| 20260507220047 | 69 | 31 | 13.0 | 19.0 | 0.00 | 0.00 | 0.00 | 29 | 1011.7 |
| 20260507214557 | 69 | 352 | 16.0 | 27.0 | 0.00 | 0.00 | 0.00 | 26 | 1011.5 |
| 20260507213107 | 69 | 342 | 14.0 | 21.0 | 0.00 | 0.00 | 0.00 | 26 | 1011.9 |
| 20260507211555 | 67 | 21 | 7.0 | 16.0 | 0.00 | 0.00 | 0.00 | 30 | 1012.2 |
| 20260507210046 | 67 | 341 | 12.0 | 18.0 | 0.00 | 0.00 | 0.00 | 31 | 1012.3 |
| 20260507204849 | 66 | 314 | 14.0 | 25.0 | 0.00 | 0.00 | 0.00 | 31 | 1012.3 |
| 20260507203045 | 63 | 42 | 9.0 | 22.0 | 0.00 | 0.00 | 0.00 | 41 | 1012.4 |
| 20260507201602 | 66 | 330 | 12.0 | 16.0 | 0.00 | 0.00 | 0.00 | 32 | 1012.3 |
| 20260507200103 | 67 | 323 | 11.0 | 20.0 | 0.00 | 0.00 | 0.00 | 31 | 1011.9 |
| 20260507194549 | 68 | 328 | 12.0 | 21.0 | 0.00 | 0.00 | 0.00 | 30 | 1011.9 |
| 20260507193045 | 66 | 345 | 11.0 | 15.0 | 0.00 | 0.00 | 0.00 | 33 | 1012.1 |
| 20260507191548 | 65 | 350 | 10.0 | 17.0 | 0.00 | 0.00 | 0.00 | 33 | 1012.2 |
| 20260507190054 | 65 | 5 | 12.0 | 17.0 | 0.00 | 0.00 | 0.00 | 34 | 1012.1 |
| 20260507184546 | 67 | 10 | 12.0 | 18.0 | 0.00 | 0.00 | 0.00 | 31 | 1012.1 |